Weather observations for the past three days for
Nausori International Airport
Metric (Imperial)
Date Time (+12) Wind (kph) Vis. (km) Weather Sky Cond. Temperature (ºC) Relative Humidity Wind Chill (°C) Heat Index (°C) Pressure Precipitation (cm)
Air Dwpt 6 hour altimeter (cm) sea level (mb) 1 hr 3 hr 6 hr
Max. Min.
05 19:00 E 9 0.00 Light Showers Rain FEW011 BKN017 BKN042 22 21 94% 0 0.0
05 18:00 SE 19 0.00 Light Showers Rain FEW010 BKN017 BKN042 22 21 94% 0 0.0
05 17:00 SE 17 0.00 Light Showers Rain FEW010 BKN017 BKN042 22 22 100% 0 0.0
05 16:00 SE 13 0.00 Light Showers Rain SCT010 BKN017 BKN042 22 22 100% 0 0.0
05 15:00 SE 19 0.00 Light Showers Rain FEW011 BKN017 BKN042 24 21 83% 24 0 0.0
05 14:00 SE 20 0.00 Light Showers Rain FEW011 BKN017 BKN042 23 22 94% 0 0.0
05 13:00 SE 19 0.00 Mostly Cloudy FEW011 BKN017 BKN042 24 22 89% 24 0 0.0
05 12:00 SE 26 0.00 Mostly Cloudy FEW010 BKN017 BKN042 24 22 89% 24 0 0.0
05 11:00 SE 19 0.00 Mostly Cloudy FEW008 BKN017 BKN042 23 22 94% 0 0.0
05 10:00 E 17 0.00 Light Showers Rain FEW007 BKN018 BKN042 23 22 94% 0 0.0
05 09:00 E 15 0.00 Light Showers Rain BKN018 BKN042 22 22 100% 0 0.0
05 08:00 SE 15 0.00 Light Showers Rain BKN020 BKN045 22 22 100% 0 0.0
05 07:00 SE 11 0.00 Mostly Cloudy BKN020 BKN045 22 21 94% 0 0.0
05 06:00 E 15 0.00 Mostly Cloudy BKN020 BKN045 22 21 94% 0 0.0
05 05:00 E 15 0.00 Overcast BKN020 OVC045 22 21 94% 0 0.0
05 04:00 E 9 0.00 Light Rain BKN018 OVC040 22 22 100% 0 0.0
05 03:00 E 15 0.00 Light Rain BKN015 OVC040 22 22 100% 0 0.0
05 02:00 E 15 0.00 Light Rain BKN018 OVC040 22 22 100% 0 0.0
05 01:00 E 15 0.00 Light Rain BKN015 OVC040 22 22 100% 0 0.0
05 00:00 SE 11 0.00 Light Rain BKN018 OVC042 22 22 100% 0 0.0
04 23:00 E 13 0.00 Light Rain BKN018 BKN045 23 23 100% 0 0.0
04 22:00 E 9 0.00 Light Showers Rain BKN018 BKN045 23 23 100% 0 0.0
04 21:00 E 9 0.00 Light Showers Rain BKN018 BKN045 23 23 100% 0 0.0
04 20:00 E 9 0.00 Light Showers Rain BKN018 BKN045 23 23 100% 0 0.0
04 19:00 E 11 0.00 Light Showers Rain BKN018 BKN045 23 23 100% 0 0.0
04 18:00 E 9 0.00 Light Showers Rain BKN018 BKN045 23 23 100% 0 0.0
04 17:00 SE 13 0.00 Light Showers Rain BKN020 BKN045 23 23 100% 0 0.0
04 16:00 SE 13 0.00 Showers in Vicinity BKN020 BKN045 24 23 94% 23 0 0.0
04 15:00 SE 13 0.00 Light Showers Rain BKN020 BKN045 24 23 94% 23 0 0.0
04 14:00 SE 15 0.00 Partly Cloudy BKN020 SCT045 25 22 83% 26 0 0.0
04 13:00 SE 13 0.00 Partly Cloudy BKN020 SCT045 25 23 89% 26 0 0.0
04 12:00 SE 15 0.00 Showers in Vicinity BKN018 BKN045 24 23 94% 23 0 0.0
04 11:00 E 13 0.00 Mostly Cloudy BKN020 BKN045 25 24 94% 26 0 0.0
04 10:00 E 15 0.00 Light Rain BKN018 BKN042 24 23 94% 23 0 0.0
04 09:00 E 11 0.00 Light Rain BKN018 BKN042 23 23 100% 0 0.0
04 08:00 Calm 0.00 Overcast SCT006 BKN018 OVC040 22 22 100% 0 0.0
04 07:00 Calm 0.00 Overcast SCT006 BKN018 OVC040 22 22 100% 0 0.0
04 06:00 Calm 0.00 Light Rain SCT018 BKN040 OVC100 0 0 0% 0 0.0
04 05:00 Calm 0.00 Overcast SCT005 BKN018 OVC040 22 21 94% 0 0.0
04 04:00 Calm 0.00 Overcast BKN020 OVC042 22 21 94% 0 0.0
04 03:00 Calm 0.00 Overcast SCT015 BKN020 OVC042 22 21 94% 0 0.0
04 02:00 Calm 0.00 Overcast BKN020 OVC042 22 21 94% 0 0.0
04 01:00 Calm 0.00 Overcast SCT015 BKN020 OVC042 22 21 94% 0 0.0
04 00:00 Calm 0.00 Light Drizzle SCT015 BKN020 OVC042 22 21 94% 0 0.0
03 23:00 Calm 0.00 Overcast SCT020 OVC042 22 21 94% 0 0.0
03 22:00 E 7 0.00 Overcast SCT020 OVC042 22 21 94% 0 0.0
03 21:00 E 7 0.00 Overcast SCT020 OVC042 23 21 89% 0 0.0
03 20:00 Vrbl 4 0.00 Mostly Cloudy BKN020 BKN042 23 21 89% 0 0.0
03 19:00 NE 11 0.00 Mostly Cloudy BKN020 BKN042 23 20 83% 0 0.0
03 18:00 E 13 0.00 Mostly Cloudy BKN020 BKN042 23 21 89% 0 0.0
03 17:00 NE 11 0.00 Mostly Cloudy FEW016 BKN020 BKN042 24 21 83% 24 0 0.0
03 16:00 E 15 0.00 Mostly Cloudy BKN018 BKN040 24 21 83% 24 0 0.0
03 15:00 E 17 0.00 Mostly Cloudy BKN018 BKN040 24 21 83% 24 0 0.0
03 14:00 E 17 0.00 Mostly Cloudy BKN018 BKN040 22 21 94% 0 0.0
03 13:00 E 15 0.00 Mostly Cloudy BKN018 BKN040 23 21 89% 0 0.0
03 12:00 E 9 0.00 Mostly Cloudy FEW005 BKN018 BKN040 23 22 94% 0 0.0
03 11:00 E 9 0.00 Mostly Cloudy SCT010 BKN018 BKN040 23 22 94% 0 0.0
03 10:00 E 13 0.00 Mostly Cloudy SCT010 BKN020 BKN042 23 22 94% 0 0.0
03 09:00 E 15 1.61 Light Showers Rain SCT010 BKN020 BKN042 23 0 0% 0 0.0
03 08:00 E 11 0.00 Mostly Cloudy SCT020 BKN045 23 21 89% 0 0.0
03 07:00 E 7 0.00 Mostly Cloudy SCT020 BKN045 22 21 94% 0 0.0
03 06:00 E 6 0.00 Mostly Cloudy SCT020 BKN045 22 21 94% 0 0.0
03 05:00 Vrbl 4 0.00 Mostly Cloudy SCT020 BKN045 21 21 100% 0 0.0
03 04:00 Vrbl 4 0.00 Mostly Cloudy SCT020 BKN045 21 20 94% 0 0.0
03 03:00 Calm 0.00 Mostly Cloudy SCT020 BKN045 21 20 94% 0 0.0
03 02:00 Vrbl 4 0.00 Mostly Cloudy SCT020 BKN045 22 20 88% 0 0.0
03 01:00 Vrbl 4 0.00 Mostly Cloudy SCT020 BKN045 22 20 88% 0 0.0
03 00:00 E 7 0.00 Mostly Cloudy SCT020 BKN045 22 19 83% 0 0.0
02 23:00 E 11 0.00 Mostly Cloudy SCT020 BKN045 22 19 83% 0 0.0
02 22:00 E 9 0.00 Mostly Cloudy SCT020 BKN045 22 19 83% 0 0.0
02 21:00 E 15 0.00 Mostly Cloudy BKN020 BKN045 22 19 83% 0 0.0
02 20:00 E 15 0.00 Mostly Cloudy BKN020 BKN045 22 19 83% 0 0.0
Date Time (+12) Wind (kph) Vis. (km) Weather Sky Cond. Air Dwpt Max. Min. Relative Humidity Wind Chill (°C) Heat Index (°C) altimeter (cm) sea level (mb) 1 hr 3 hr 6 hr
6 hour
Temperature (ºC) Pressure Precipitation (cm)